GW1554 Weather Reports


Display with metric or nautical units.
time (UTC)temp
F
wind
direction
speed
MPH
gust
MPH
rain 1hr
in
rain 24hr
in
rain mn
in
humidity
%
barometer
mb
20260906051549 69 289 0.0 2.0 0.00 0.00 0.00 88 1020.7
20260906050108 70 345 0.0 2.0 0.00 0.00 0.00 86 1020.3
20260906044546 70 321 0.0 4.0 0.00 0.00 0.00 82 1020.1
20260906043046 69 329 2.0 4.0 0.00 0.00 0.00 84 1020.1
20260906041544 70 286 1.0 2.0 0.00 0.00 0.00 85 1020.1
20260906040043 70 287 1.0 3.0 0.00 0.00 0.00 83 1020.1
20260906034544 70 245 0.0 2.0 0.00 0.00 0.00 81 1020.1
20260906033051 71 342 0.0 2.0 0.00 0.00 0.00 76 1019.7
20260906031539 71 346 1.0 5.0 0.00 0.00 0.00 76 1019.6
20260906030039 70 307 1.0 3.0 0.00 0.00 0.00 80 1019.4
20260906024537 70 333 1.0 3.0 0.00 0.00 0.00 86 1019.4
20260906023032 70 13 0.0 2.0 0.00 0.00 0.00 91 1019.5
20260906021529 70 308 1.0 3.0 0.00 0.00 0.00 91 1019.6
20260906020031 71 352 1.0 3.0 0.00 0.00 0.00 90 1019.8
20260906014533 71 331 2.0 5.0 0.00 0.00 0.00 90 1019.7
20260906013028 71 17 1.0 7.0 0.00 0.00 0.00 90 1019.8
20260906011522 72 20 3.0 5.0 0.00 0.00 0.00 90 1019.8
20260906010020 72 302 1.0 3.0 0.00 0.00 0.00 91 1019.8
20260906004519 72 7 0.0 2.0 0.00 0.00 0.00 91 1019.8
20260906003019 72 16 0.0 1.0 0.00 0.00 0.00 92 1019.9
20260906001518 72 15 0.0 0.0 0.00 0.00 0.00 92 1019.9
20260906000017 72 15 0.0 2.0 0.00 0.00 0.00 92 1019.9
20260905234515 72 4 0.0 1.0 0.00 0.00 0.00 91 1019.9
20260905233016 73 5 0.0 2.0 0.00 0.00 0.00 90 1019.8
20260905231510 73 323 0.0 1.0 0.00 0.00 0.00 89 1019.9
20260905230007 72 321 1.0 4.0 0.00 0.00 0.00 90 1019.9
20260905224505 72 323 0.0 3.0 0.00 0.00 0.00 89 1019.6
20260905223005 72 335 1.0 6.0 0.00 0.00 0.00 90 1019.6
20260905221504 72 343 1.0 7.0 0.00 0.00 0.00 90 1019.4
20260905220057 73 3 1.0 5.0 0.00 0.00 0.00 89 1019.5
20260905214558 72 356 1.0 3.0 0.00 0.00 0.00 89 1019.6
20260905213057 72 357 0.0 2.0 0.00 0.00 0.00 89 1019.6
20260905211602 72 284 0.0 2.0 0.00 0.00 0.00 90 1019.7
20260905210057 72 310 0.0 2.0 0.00 0.00 0.00 90 1019.5
20260905204554 71 286 0.0 2.0 0.00 0.00 0.00 90 1019.5
20260905203100 72 352 0.0 4.0 0.00 0.00 0.00 91 1019.4
20260905201555 72 2 0.0 1.0 0.00 0.00 0.00 93 1019.3
20260905200101 73 353 0.0 1.0 0.00 0.00 0.00 93 1019.4
20260905194551 73 350 0.0 0.0 0.00 0.00 0.00 93 1019.4
20260905193106 73 355 0.0 1.0 0.00 0.00 0.00 93 1019.2
20260905191548 73 212 0.0 0.0 0.00 0.00 0.00 94 1018.9
20260905190048 74 212 0.0 0.0 0.00 0.00 0.00 94 1019.0
20260905184547 74 155 0.0 1.0 0.00 0.00 0.00 93 1018.8
20260905183051 74 131 0.0 1.0 0.00 0.00 0.00 93 1018.6
20260905181546 74 213 0.0 3.0 0.00 0.00 0.00 93 1018.5
20260905180045 75 220 0.0 3.0 0.00 0.00 0.00 92 1018.6
20260905174546 75 221 2.0 5.0 0.00 0.00 0.00 91 1018.5
20260905173044 76 155 0.0 3.0 0.00 0.00 0.00 91 1018.5
20260905171545 76 233 0.0 6.0 0.00 0.00 0.00 91 1018.4
20260905170041 76 136 1.0 5.0 0.00 0.00 0.00 89 1018.4
20260905164541 77 223 2.0 5.0 0.00 0.00 0.00 88 1018.4
20260905163040 78 224 3.0 7.0 0.00 0.00 0.00 85 1018.4
20260905161539 79 231 1.0 5.0 0.00 0.00 0.00 83 1018.3
20260905160039 81 207 1.0 5.0 0.00 0.00 0.00 79 1018.3
20260905154547 82 123 1.0 4.0 0.00 0.00 0.00 80 1018.3
20260905153037 82 123 1.0 5.0 0.00 0.00 0.00 78 1018.4
20260905151537 81 214 1.0 6.0 0.00 0.00 0.00 79 1018.5
20260905150039 82 107 5.0 8.0 0.00 0.00 0.00 77 1018.6
20260905144535 82 209 1.0 7.0 0.00 0.00 0.00 79 1018.6
20260905143035 81 264 2.0 7.0 0.00 0.00 0.00 79 1018.6
20260905141534 80 115 3.0 7.0 0.00 0.00 0.00 81 1018.7
20260905140035 79 205 0.0 5.0 0.00 0.00 0.00 82 1018.7
20260905134543 79 145 4.0 7.0 0.00 0.00 0.00 83 1018.8
20260905133031 80 134 5.0 10.0 0.00 0.00 0.00 80 1018.8
20260905131535 80 144 2.0 10.0 0.00 0.00 0.00 80 1018.9
20260905130029 80 221 4.0 9.0 0.00 0.00 0.00 79 1018.8
20260905124529 79 93 0.0 5.0 0.00 0.00 0.00 80 1018.8
20260905123028 81 195 4.0 7.0 0.00 0.00 0.00 78 1018.8
20260905121527 82 217 1.0 8.0 0.00 0.00 0.00 77 1018.9
20260905120026 80 155 5.0 11.0 0.00 0.00 0.00 78 1019.0
20260905114524 80 108 5.0 10.0 0.00 0.00 0.00 79 1018.8
20260905113023 79 127 3.0 9.0 0.00 0.00 0.00 79 1018.8
20260905111527 79 138 1.0 7.0 0.00 0.00 0.00 81 1018.9
20260905110022 78 127 5.0 9.0 0.00 0.00 0.00 81 1018.8
20260905104520 79 108 1.0 6.0 0.00 0.00 0.00 81 1018.8
20260905103027 79 263 2.0 9.0 0.00 0.00 0.00 82 1018.8
20260905101520 78 117 3.0 6.0 0.00 0.00 0.00 83 1018.9
20260905100021 78 230 2.0 8.0 0.00 0.00 0.00 84 1018.8
20260905094518 78 245 2.0 5.0 0.00 0.00 0.00 82 1018.7
20260905093018 80 239 1.0 5.0 0.00 0.00 0.00 79 1018.7
20260905091517 80 267 2.0 5.0 0.00 0.00 0.00 78 1018.6
20260905090014 79 120 1.0 3.0 0.00 0.00 0.00 80 1018.6
20260905084514 79 96 1.0 5.0 0.00 0.00 0.00 79 1018.5
20260905083013 78 95 2.0 6.0 0.00 0.00 0.00 79 1018.5
20260905081510 79 225 1.0 4.0 0.00 0.00 0.00 79 1018.3
20260905080011 77 208 1.0 4.0 0.00 0.00 0.00 83 1018.4
20260905074505 76 184 0.0 1.0 0.00 0.00 0.00 84 1018.4
20260905073004 76 126 0.0 1.0 0.00 0.00 0.00 84 1018.5
20260905071504 74 93 0.0 1.0 0.00 0.00 0.00 83 1018.3
20260905070004 74 91 0.0 2.0 0.00 0.00 0.00 82 1018.2
20260905064502 75 103 0.0 0.0 0.00 0.00 0.00 81 1018.1
20260905063059 76 16 0.0 1.0 0.00 0.00 0.00 83 1018.1
20260905061607 73 15 0.0 0.0 0.00 0.00 0.00 87 1018.0
20260905060058 72 347 1.0 4.0 0.00 0.00 0.00 86 1017.9
20260905054554 72 343 1.0 5.0 0.00 0.00 0.00 87 1017.9
20260905053048 71 349 1.0 5.0 0.00 0.00 0.00 90 1017.8